COSMOS 1275 DEB, 39948

Orbit data source: Space-Track

COSMOS 1275 DEB, 39948 is space debris in LEO originally from a launch on Thu, 04 Jun 1981 UTC launched from the Plesetsk Missile And Space Complex (PKMTR). Debris objects in space refer to the collection of defunct objects orbiting the Earth. Examples of debris include non-operational satellites, rocket bodies, and fragments generated from explosions, collisions, or faulty payload assembly.

Loading next visibility...
Identifier
39948, 1981-053NJ
Orbit
LEO
Country
Flag of CISCIS
Related business
Manufacturer
Unknown
Mission
Spacecraft
Bus & Motor
Unknown
Mass
Unknown
Launch date (UTC)
1981-06-04 (45 years ago)
Launch vehicle
Unknown
Launch site
Plesetsk Missile And Space Complex (PKMTR)
Object type
Payload
Rocket body
Debris
Shape & HBR
Unknown shape, 0.1 m
Radar Cross Section
Small (<0.1 m²)

Expand to show TLE details & history
Last TLE update: 2 weeks ago

TLE from 2 weeks ago
0 COSMOS 1275 DEB
1 39948U 81053NJ  26160.10212861  .00000503  00000-0  60482-3 0  9997
2 39948  83.0617 292.9004 0190247  59.9673 115.4838 13.57501891593083
Epoch: 2026-06-09T02:27Z
TLE epoch observation values (Epoch: 2026-06-09T02:27:03.911Z)
Latitude
2.48352°
Longitude
178.35378°
Altitude
1,110.312 km
Speed
7.266 km/s
True Right ascension
07h 30m 23s
True Declination
2° 28' 10"
Sunlit
Object was in daylight at epoch
Visualization orbit readout
Latitude
Unknown
Longitude
Unknown
Altitude
Unknown
Speed
Unknown
Apparent Right ascension
Unknown
Apparent Declination
Unknown
Sunlit
N/A
Visualization observer readout
Local Sidereal Time
00:50:33
Azimuth
Unknown
Elevation
Unknown
Doppler factor
Unknown
Orbital elements
Apogee altitude
1,183.117 km
Perigee altitude
900.787 km
Semi-major axis
7,420.089 km
Eccentricity
0.01902
Inclination
83.0617°
RAAN
292.9004°
Arg. of periapsis
59.9673°
True anomaly
117.43145°
Mean anomaly
115.4838°
Eccentric anomaly
116.45965°
Mean motion
3.3957 °/min
Orbital period
106.02 mins
BSTAR
0.00060482
Loading maneuver chart data...
Computing Atmospheric mass density...

Documentation

Showing up to 5 results
|